VIA003 SVSR-SVPA

Flight info

Callsign VIA003
Flight time 0h -31m
Altitude 20000
Route SFD W17 PTC DCT PAY
Aircraft B738/M-SDE2E3FGHIRWXY/LB1

Departure

Time 2026-05-06 16:00
Airport San Fernando de Apure Las Flecheras National Airport (SVSR)

Arrival

Time 2026-05-06 15:29
Airport Cacique Aramare Airport (SVPA)
Time Latitude Longitude Altitude Speed Heading
2026-05-06 15:28 5.62705 -67.60353 281 ft 0 kts 324°
2026-05-06 15:32 5.62716 -67.60346 281 ft 3 kts 67°
2026-05-06 15:32 5.62724 -67.60321 281 ft 6 kts 73°
2026-05-06 15:32 5.62729 -67.60305 281 ft 7 kts 73°
2026-05-06 15:33 5.62730 -67.60300 281 ft 2 kts 73°
2026-05-06 15:33 5.62739 -67.60257 281 ft 8 kts 90°
2026-05-06 15:33 5.62727 -67.60204 281 ft 6 kts 85°
2026-05-06 15:33 5.62755 -67.60169 281 ft 6 kts 38°
2026-05-06 15:34 5.62795 -67.60142 281 ft 8 kts 31°
2026-05-06 15:34 5.62855 -67.60107 280 ft 11 kts 34°
2026-05-06 15:34 5.62923 -67.60055 280 ft 12 kts 33°
2026-05-06 15:34 5.62960 -67.60033 280 ft 0 kts
2026-05-06 15:35 5.62963 -67.60040 280 ft 2 kts 252°
2026-05-06 15:35 5.62950 -67.60049 280 ft 0 kts 211°
2026-05-06 15:37 5.62949 -67.60050 280 ft 5 kts 211°
2026-05-06 15:37 5.62655 -67.60221 281 ft 89 kts 211°
2026-05-06 15:37 5.61900 -67.60666 285 ft 159 kts 210°
2026-05-06 15:38 5.60849 -67.61281 759 ft 178 kts 210°
2026-05-06 15:38 5.59767 -67.61935 1447 ft 192 kts 210°
2026-05-06 15:38 5.58580 -67.62678 2113 ft 209 kts 219°
2026-05-06 15:38 5.57775 -67.63907 2779 ft 219 kts 259°
2026-05-06 15:39 5.57953 -67.65433 3449 ft 228 kts 299°
2026-05-06 15:39 5.59084 -67.66535 4113 ft 235 kts 338°
2026-05-06 15:39 5.60701 -67.66733 4754 ft 244 kts 14°
2026-05-06 15:39 5.62341 -67.66141 5443 ft 255 kts 26°
2026-05-06 15:40 5.63985 -67.65344 6084 ft 270 kts 28°
2026-05-06 15:40 5.65707 -67.64487 6845 ft 279 kts 28°
2026-05-06 15:40 5.67435 -67.63629 7722 ft 283 kts 28°
2026-05-06 15:40 5.69222 -67.62747 8607 ft 286 kts 28°
2026-05-06 15:41 5.71027 -67.61862 9473 ft 290 kts 28°
2026-05-06 15:41 5.72827 -67.60990 10317 ft 293 kts 28°
2026-05-06 15:41 5.74714 -67.60083 10984 ft 304 kts 28°
2026-05-06 15:41 5.76687 -67.59168 11505 ft 318 kts 27°
2026-05-06 15:42 5.78758 -67.58253 12189 ft 326 kts 26°
2026-05-06 15:42 5.80867 -67.57372 12981 ft 329 kts 23°
2026-05-06 15:42 5.83071 -67.56673 13599 ft 339 kts 18°
2026-05-06 15:42 5.85516 -67.56058 13035 ft 386 kts 15°
2026-05-06 15:43 5.88288 -67.55465 12002 ft 423 kts 14°
2026-05-06 15:43 5.91183 -67.54908 11839 ft 407 kts 13°
2026-05-06 15:43 5.93896 -67.54408 11823 ft 384 kts 13°
2026-05-06 15:43 5.96507 -67.53921 10934 ft 389 kts 13°
2026-05-06 15:44 5.99231 -67.53394 9372 ft 409 kts 13°
2026-05-06 15:44 6.02066 -67.52831 8259 ft 414 kts 13°
2026-05-06 15:44 6.04833 -67.52277 7928 ft 397 kts 13°
2026-05-06 15:44 6.07519 -67.51737 7782 ft 376 kts 13°
2026-05-06 15:45 6.10055 -67.51226 7453 ft 364 kts 13°
2026-05-06 15:45 6.12505 -67.50727 6865 ft 361 kts 13°
2026-05-06 15:45 6.14972 -67.50221 6298 ft 357 kts 13°
2026-05-06 15:45 6.17377 -67.49739 6159 ft 339 kts 11°
2026-05-06 15:46 6.19669 -67.49453 6165 ft 321 kts
2026-05-06 15:46 6.21856 -67.49343 6154 ft 313 kts
2026-05-06 15:46 6.24104 -67.49299 6803 ft 324 kts
2026-05-06 15:46 6.26341 -67.49262 7913 ft 320 kts
2026-05-06 15:47 6.28586 -67.49210 8763 ft 325 kts
2026-05-06 15:47 6.30869 -67.49142 9611 ft 329 kts
2026-05-06 15:47 6.33153 -67.49067 10447 ft 333 kts
2026-05-06 15:47 6.35503 -67.48987 11272 ft 337 kts
2026-05-06 15:48 6.37853 -67.48906 12077 ft 340 kts
2026-05-06 15:48 6.40259 -67.48824 12863 ft 344 kts
2026-05-06 15:48 6.42670 -67.48741 13656 ft 347 kts
2026-05-06 15:48 6.45098 -67.48659 14408 ft 351 kts
2026-05-06 15:49 6.47568 -67.48577 15183 ft 353 kts
2026-05-06 15:49 6.50048 -67.48495 15885 ft 357 kts
2026-05-06 15:49 6.52548 -67.48412 16563 ft 361 kts
2026-05-06 15:49 6.55076 -67.48328 16868 ft 364 kts
2026-05-06 15:50 6.57643 -67.48243 16946 ft 365 kts
2026-05-06 15:50 6.60188 -67.48161 16958 ft 362 kts
2026-05-06 15:50 6.62733 -67.48077 16962 ft 364 kts
2026-05-06 15:50 6.65278 -67.47993 16962 ft 364 kts
2026-05-06 15:51 6.67815 -67.47910 16966 ft 363 kts
2026-05-06 15:51 6.70360 -67.47826 16967 ft 363 kts
2026-05-06 15:51 6.72896 -67.47742 16965 ft 362 kts
2026-05-06 15:51 6.75433 -67.47658 16966 ft 362 kts
2026-05-06 15:52 6.77985 -67.47573 16962 ft 362 kts
2026-05-06 15:52 6.80522 -67.47489 16963 ft 362 kts
2026-05-06 15:52 6.83061 -67.47405 16962 ft 362 kts
2026-05-06 15:52 6.85581 -67.47321 16961 ft 362 kts
2026-05-06 15:53 6.88120 -67.47236 16959 ft 363 kts
2026-05-06 15:53 6.90652 -67.47152 16959 ft 362 kts
2026-05-06 15:53 6.93198 -67.47066 16960 ft 363 kts
2026-05-06 15:53 6.95730 -67.46983 16958 ft 364 kts
2026-05-06 15:54 6.98299 -67.46897 16955 ft 363 kts
2026-05-06 15:54 7.00838 -67.46813 16955 ft 363 kts
2026-05-06 15:54 7.03372 -67.46729 16956 ft 362 kts
2026-05-06 15:54 7.05910 -67.46645 16956 ft 362 kts
2026-05-06 15:55 7.08428 -67.46561 16956 ft 362 kts
2026-05-06 15:55 7.10970 -67.46477 16956 ft 361 kts
2026-05-06 15:55 7.13515 -67.46392 16954 ft 361 kts
2026-05-06 15:55 7.16041 -67.46308 16937 ft 361 kts
2026-05-06 15:56 7.18547 -67.46225 16628 ft 358 kts
2026-05-06 15:56 7.21025 -67.46143 16157 ft 355 kts
2026-05-06 15:56 7.23525 -67.46061 15675 ft 352 kts
2026-05-06 15:56 7.25980 -67.45980 15202 ft 350 kts
2026-05-06 15:57 7.28395 -67.45900 14732 ft 347 kts
2026-05-06 15:57 7.30825 -67.45820 14257 ft 345 kts
2026-05-06 15:57 7.33220 -67.45740 13763 ft 341 kts
2026-05-06 15:57 7.35565 -67.45664 13282 ft 329 kts
2026-05-06 15:58 7.37823 -67.45592 12811 ft 318 kts
2026-05-06 15:58 7.40013 -67.45520 12341 ft 308 kts
2026-05-06 15:58 7.42154 -67.45448 11866 ft 300 kts
2026-05-06 15:58 7.44225 -67.45377 11395 ft 293 kts
2026-05-06 15:59 7.46247 -67.45307 10927 ft 290 kts
2026-05-06 15:59 7.48273 -67.45237 10454 ft 289 kts
2026-05-06 15:59 7.50301 -67.45168 9979 ft 288 kts
2026-05-06 15:59 7.52292 -67.45101 9543 ft 287 kts
2026-05-06 16:00 7.54305 -67.45033 9061 ft 290 kts
2026-05-06 16:00 7.56336 -67.44965 8586 ft 292 kts
2026-05-06 16:00 7.58410 -67.44896 8107 ft 295 kts
2026-05-06 16:00 7.60483 -67.44827 7632 ft 297 kts
2026-05-06 16:01 7.62568 -67.44757 7157 ft 298 kts
2026-05-06 16:01 7.64638 -67.44688 6688 ft 299 kts
2026-05-06 16:01 7.66744 -67.44618 6212 ft 300 kts
2026-05-06 16:01 7.68841 -67.44548 5722 ft 300 kts
2026-05-06 16:02 7.70900 -67.44482 5244 ft 291 kts
2026-05-06 16:02 7.72909 -67.44418 4831 ft 280 kts
2026-05-06 16:02 7.74835 -67.44356 4561 ft 266 kts
2026-05-06 16:02 7.76677 -67.44295 4164 ft 259 kts
2026-05-06 16:03 7.78474 -67.44233 3657 ft 257 kts
2026-05-06 16:03 7.80251 -67.44172 3381 ft 245 kts
2026-05-06 16:03 7.81905 -67.44342 3145 ft 240 kts 341°
2026-05-06 16:03 7.83189 -67.45377 2961 ft 235 kts 301°
2026-05-06 16:04 7.83729 -67.46884 2960 ft 220 kts 285°
2026-05-06 16:04 7.84049 -67.48359 2927 ft 210 kts 284°
2026-05-06 16:04 7.84351 -67.49794 2934 ft 209 kts 284°
2026-05-06 16:04 7.84658 -67.51230 2933 ft 206 kts 284°
2026-05-06 16:05 7.84947 -67.52593 2952 ft 188 kts 284°
2026-05-06 16:05 7.85216 -67.53867 2829 ft 183 kts 284°
2026-05-06 16:05 7.85486 -67.55136 2494 ft 186 kts 284°
2026-05-06 16:05 7.85846 -67.56397 2159 ft 185 kts 304°
2026-05-06 16:06 7.86804 -67.57158 1800 ft 173 kts 355°
2026-05-06 16:06 7.87960 -67.57132 1544 ft 163 kts 12°
2026-05-06 16:06 7.89088 -67.57003 1443 ft 161 kts 13°
2026-05-06 16:06 7.90158 -67.56659 1455 ft 159 kts 31°
2026-05-06 16:07 7.91109 -67.56081 1445 ft 157 kts 45°
2026-05-06 16:07 7.91831 -67.55271 1453 ft 155 kts 59°
2026-05-06 16:07 7.92027 -67.54235 1458 ft 155 kts 102°
2026-05-06 16:07 7.91646 -67.53217 1462 ft 158 kts 110°
2026-05-06 16:08 7.91223 -67.52261 1460 ft 141 kts 110°
2026-05-06 16:08 7.90819 -67.51342 1422 ft 143 kts 111°
2026-05-06 16:08 7.90375 -67.50457 1109 ft 142 kts 114°
2026-05-06 16:08 7.89958 -67.49544 846 ft 140 kts 107°
2026-05-06 16:09 7.89648 -67.48644 717 ft 133 kts 104°
2026-05-06 16:09 7.89372 -67.47731 567 ft 136 kts 104°
2026-05-06 16:09 7.89088 -67.46809 392 ft 137 kts 105°
2026-05-06 16:09 7.88807 -67.45895 250 ft 136 kts 105°
2026-05-06 16:10 7.88512 -67.44978 166 ft 136 kts 105°
2026-05-06 16:10 7.88256 -67.44154 163 ft 99 kts 105°
2026-05-06 16:10 7.88119 -67.43749 163 ft 31 kts 108°
2026-05-06 16:10 7.88079 -67.43630 163 ft 8 kts 107°
2026-05-06 16:11 7.88094 -67.43630 163 ft 5 kts 292°
2026-05-06 16:11 7.88119 -67.43696 163 ft 15 kts 287°
2026-05-06 16:11 7.88160 -67.43839 163 ft 26 kts 285°
2026-05-06 16:11 7.88221 -67.44049 163 ft 33 kts 287°
2026-05-06 16:12 7.88284 -67.44254 163 ft 26 kts 288°
2026-05-06 16:12 7.88331 -67.44382 163 ft 11 kts 328°
2026-05-06 16:12 7.88406 -67.44372 163 ft 9 kts 20°
2026-05-06 16:12 7.88439 -67.44336 163 ft 5 kts 70°
2026-05-06 16:13 7.88449 -67.44304 163 ft 4 kts 72°
2026-05-06 16:13 7.88453 -67.44291 163 ft 0 kts 73°